User: anonymous   Login
Location: Unspecified
(0.0000°N, 0.0000°E)
Time: 00:57:44
(UTC+00:00)
Language:

STARLINK-31024 - Orbit

View from above orbital plane
View from above orbital plane
View from above satellite
View from above satellite

Ground track
Ground track

The orbit is defined by the following mean orbital elements,

1 58786U          26145.33905336 +.00000000 +00000-0 +40765-4 0 00003
2 58786  53.1617  15.6725 0001166  92.1124 268.0010 15.30194402    04
Epoch (UTC): 25 May 2026 08:08:14
Eccentricity: 0.0001166
inclination: 53.1617°
perigee height: 474 km
apogee height: 476 km
right ascension of ascending node: 15.6725°
argument of perigee: 92.1124°
revolutions per day: 15.30194402
mean anomaly at epoch: 268.0010°

The dashed part of the orbit path shows where the satellite is in the earth's shadow,  

DLR